This is the latest recevied weather packets stored in our database for station/object E25WOP-13. If no packets are shown the sender has not sent any weather packets the latest 10 day(s).
| Time | Temp. | Humidity | Pressure | Rain* | Wind** | Luminosity | Snow |
|---|---|---|---|---|---|---|---|
| 1777443017 | 34.44° C | 59% | 1006.5 hPa | 0 mm | - | 1135 W/m² | - |
| 1777442417 | 33.89° C | 61% | 1006.7 hPa | 0 mm | - | 874 W/m² | - |
| 1777441817 | 34.44° C | 61% | 1006.7 hPa | 0 mm | - | 964 W/m² | - |
| 1777441217 | 33.89° C | 61% | 1006.5 hPa | 0 mm | - | 1100 W/m² | - |
| 1777440617 | 34.44° C | 61% | 1006.7 hPa | 0 mm | - | 1142 W/m² | - |
| 1777440017 | 33.89° C | 61% | 1007 hPa | 0 mm | - | 1143 W/m² | - |
| 1777439417 | 34.44° C | 60% | 1006.9 hPa | 0 mm | - | 1145 W/m² | - |
| 1777438817 | 33.89° C | 61% | 1007.1 hPa | 0 mm | - | 1144 W/m² | - |
| 1777438217 | 33.89° C | 61% | 1007.3 hPa | 0 mm | - | 1145 W/m² | - |
| 1777437616 | 33.33° C | 62% | 1007.5 hPa | 0 mm | - | 1144 W/m² | - |
| 1777437016 | 33.89° C | 62% | 1007.7 hPa | 0 mm | - | 1137 W/m² | - |
| 1777436416 | 33.89° C | 61% | 1007.7 hPa | 0 mm | - | 1100 W/m² | - |
| 1777435816 | 33.89° C | 62% | 1007.8 hPa | 0 mm | - | 972 W/m² | - |
| 1777435216 | 33.33° C | 63% | 1007.7 hPa | 0 mm | - | 906 W/m² | - |
| 1777434616 | 33.33° C | 63% | 1008.1 hPa | 0 mm | - | 1137 W/m² | - |
| 1777434016 | 33.33° C | 65% | 1008.4 hPa | 0 mm | - | 1101 W/m² | - |
| 1777433416 | 32.78° C | 66% | 1008.3 hPa | 0 mm | - | 995 W/m² | - |
| 1777432816 | 32.78° C | 65% | 1008.4 hPa | 0 mm | - | 961 W/m² | - |
| 1777432216 | 33.33° C | 65% | 1008.2 hPa | 0 mm | - | 953 W/m² | - |
| 1777431616 | 33.33° C | 64% | 1008.5 hPa | 0 mm | - | 840 W/m² | - |
| 1777431016 | 32.78° C | 63% | 1008.2 hPa | 0 mm | - | 750 W/m² | - |
| 1777430416 | 33.33° C | 65% | 1008.4 hPa | 0 mm | - | 626 W/m² | - |
| 1777429816 | 34.44° C | 60% | 1008.5 hPa | 0 mm | - | 401 W/m² | - |
| 1777429216 | 33.89° C | 62% | 1008.4 hPa | 0 mm | - | 346 W/m² | - |
| 1777428616 | 32.78° C | 64% | 1008.4 hPa | 0 mm | - | 308 W/m² | - |
* Rain latest hour (hover to see other rain measurements)
** Current wind speed in m/s (hover to see current wind gust speed)